Content
SEND FEEDBACK

Daily
Averages
Monthly
Summary
United States of America

CLEAR LAKE, SOUTH DAKOTA


Home > North America > United States > South Dakota
Elevation: 1831 feet     Latitude: 44 45N     Longitude: 096 41W

WEATHER
 
SELECT A DAY
Number of Records: 198,309;   Date Range: 6/9/06 - 7/29/14
 
SHARE

PRINT THIS DATA

[ ← Previous Day ]
WEATHER ALMANAC - FEBRUARY 13, 2013
[ Next Day → ]
[ °C ]   °F
Weather ElementAverageHighLow
Temperature32.6 °F37.8 °F (5:36 pm)25.9 °F (3:16 am)
Dewpoint27.2 °F32.2 °F (7:16 pm)21.9 °F (3:16 am)
Humidity80.8 %94 % (8:56 pm)71 % (12:16 pm)
Barometer29.67 in29.82 in (12:36 am)29.56 in (4:36 pm)
Wind Speed10.2 mph21.9 mph (8:56 pm)
Wind Gust27.6 mph (8:36 pm)
Weather ElementAverage
Visibility9.9 mi
Wind DirectionWSW (236.5 °)

Weather ElementTotal
Precipitation---
Heating Degree Days33.2 (Base 65)
Averaged from 71 records on February 13, 2013
WEATHER CONDITIONS BREAKOUT
WIND DIRECTION BREAKOUT
WEATHER BY HOUR - FEBRUARY 13, 2013
[ °C ]   °F
Local TimeTemperatureDewpointHumidityBarometerVisibilityWind DirectionWind SpeedGust SpeedPrecipitationEventsConditions
12:36 AM28.0 °F23.4 °F83 %29.82 in10.0 miWSW (250°)8.1 mphOvercast
12:55 AM27.1 °F22.8 °F84 %29.81 in10.0 miWSW (240°)8.1 mphOvercast
1:16 AM27.3 °F23.4 °F85 %29.80 in10.0 miWSW (250°)8.1 mphOvercast
1:36 AM28.2 °F23.9 °F84 %29.80 in10.0 miWest (260°)12.7 mphOvercast
1:55 AM28.2 °F23.7 °F83 %29.80 in10.0 miWest (270°)8.1 mphOvercast
2:16 AM28.4 °F23.7 °F83 %29.80 in10.0 miWest (270°)5.8 mphOvercast
2:36 AM27.5 °F23.0 °F83 %29.80 in10.0 miWest (270°)11.5 mphMostly Cloudy
2:55 AM27.1 °F22.8 °F84 %29.80 in10.0 miCalmOvercast
3:16 AM25.9 °F21.9 °F85 %29.79 in10.0 miCalmOvercast
3:36 AM26.8 °F22.8 °F85 %29.78 in10.0 miWSW (240°)5.8 mphOvercast
3:55 AM28.6 °F23.5 °F81 %29.77 in10.0 miWSW (250°)4.6 mphOvercast
4:16 AM30.0 °F24.4 °F80 %29.77 in10.0 miWSW (240°)4.6 mphOvercast
4:36 AM30.6 °F24.8 °F79 %29.76 in10.0 miWest (270°)5.8 mphOvercast
4:56 AM30.7 °F24.8 °F79 %29.76 in10.0 miCalmOvercast
5:15 AM31.1 °F25.0 °F78 %29.75 in10.0 miCalmOvercast
5:36 AM30.6 °F25.0 °F80 %29.75 in10.0 miWSW (250°)3.5 mphOvercast
5:56 AM31.5 °F25.5 °F79 %29.74 in10.0 miSW (230°)4.6 mphOvercast
6:16 AM30.2 °F24.6 °F80 %29.73 in10.0 miWSW (240°)6.9 mphMostly Cloudy
6:36 AM28.6 °F23.2 °F80 %29.72 in10.0 miWSW (240°)8.1 mphScattered Clouds
6:56 AM28.2 °F23.0 °F81 %29.72 in10.0 miWSW (240°)10.4 mphClear
7:15 AM27.5 °F22.8 °F83 %29.71 in10.0 miWSW (240°)11.5 mphClear
7:36 AM27.3 °F22.6 °F83 %29.71 in10.0 miSW (220°)8.1 mphClear
7:56 AM28.2 °F22.8 °F80 %29.70 in10.0 miSW (230°)8.1 mphClear
8:16 AM28.9 °F23.0 °F78 %29.69 in10.0 miSW (230°)13.8 mph19.6 mphClear
8:35 AM28.8 °F23.0 °F79 %29.69 in10.0 miSW (230°)12.7 mphClear
8:56 AM30.6 °F23.7 °F76 %29.69 in10.0 miWSW (240°)15.0 mphClear
9:16 AM30.9 °F24.1 °F76 %29.69 in10.0 miWSW (240°)11.5 mphClear
9:36 AM32.2 °F24.8 °F74 %29.68 in10.0 miWSW (240°)13.8 mph18.4 mphClear
9:55 AM32.9 °F25.7 °F75 %29.68 in10.0 miWSW (240°)15.0 mph19.6 mphClear
10:16 AM33.8 °F26.6 °F75 %29.67 in10.0 miWSW (240°)13.8 mphScattered Clouds
10:36 AM35.1 °F27.5 °F74 %29.68 in10.0 miWSW (240°)10.4 mphMostly Cloudy
10:55 AM35.2 °F27.9 °F74 %29.67 in10.0 miWSW (240°)8.1 mphOvercast
11:16 AM35.6 °F27.9 °F73 %29.67 in10.0 miWest (260°)5.8 mphOvercast
11:36 AM35.6 °F28.0 °F74 %29.66 in10.0 miWest (260°)5.8 mphOvercast
11:55 AM36.0 °F27.9 °F72 %29.66 in10.0 miWNW (290°)3.5 mphOvercast
12:16 PM36.5 °F27.9 °F71 %29.66 in10.0 miWest (270°)11.5 mphOvercast
12:35 PM35.6 °F27.5 °F72 %29.66 in10.0 miWest (260°)8.1 mphOvercast
12:56 PM35.1 °F27.1 °F73 %29.64 in10.0 miCalmOvercast
1:16 PM35.2 °F27.3 °F73 %29.63 in10.0 miCalmOvercast
1:36 PM35.2 °F27.7 °F74 %29.61 in10.0 miSW (220°)4.6 mphOvercast
1:56 PM35.6 °F28.4 °F75 %29.60 in10.0 miSSW (200°)3.5 mphOvercast
2:15 PM36.3 °F28.4 °F73 %29.59 in10.0 miSSW (210°)4.6 mphOvercast
2:36 PM36.3 °F28.9 °F75 %29.59 in10.0 miSouth (190°)4.6 mphOvercast
2:56 PM36.0 °F28.9 °F76 %29.58 in10.0 miCalmOvercast
3:15 PM35.6 °F29.1 °F77 %29.59 in10.0 miSW (220°)8.1 mphOvercast
3:36 PM35.8 °F29.3 °F77 %29.59 in10.0 miSW (230°)5.8 mphOvercast
3:55 PM36.3 °F29.7 °F77 %29.58 in10.0 miWSW (240°)9.2 mphOvercast
4:16 PM36.3 °F30.6 °F80 %29.57 in10.0 miWSW (240°)15.0 mphOvercast
4:36 PM36.3 °F30.9 °F81 %29.56 in10.0 miWSW (240°)15.0 mph19.6 mphOvercast
4:56 PM37.0 °F30.9 °F79 %29.57 in10.0 miWest (260°)12.7 mphOvercast
5:15 PM37.4 °F31.3 °F79 %29.57 in10.0 miWest (270°)15.0 mphOvercast
5:36 PM37.8 °F31.6 °F79 %29.57 in10.0 miWest (270°)17.3 mph23.0 mphOvercast
5:56 PM37.4 °F31.6 °F80 %29.57 in10.0 miWNW (290°)15.0 mph20.7 mphOvercast
6:15 PM37.4 °F31.8 °F80 %29.58 in10.0 miWNW (300°)10.4 mphOvercast
6:36 PM37.4 °F32.0 °F81 %29.58 in10.0 miWest (280°)13.8 mphOvercast
6:56 PM37.2 °F32.0 °F81 %29.59 in10.0 miWNW (290°)13.8 mphOvercast
7:16 PM37.4 °F32.2 °F81 %29.59 in10.0 miWest (280°)13.8 mph20.7 mphOvercast
7:36 PM37.4 °F32.2 °F81 %29.59 in10.0 miWest (280°)17.3 mphOvercast
7:56 PM37.0 °F32.0 °F82 %29.59 in10.0 miWNW (290°)20.7 mphOvercast
8:16 PM36.5 °F32.0 °F84 %29.60 in10.0 miWNW (300°)20.7 mph24.2 mphOvercast
8:36 PM36.1 °F32.0 °F85 %29.61 in10.0 miNW (320°)18.4 mph27.6 mphOvercast
8:56 PM32.9 °F31.3 °F94 %29.62 in10.0 miNW (320°)21.9 mph26.5 mphOvercast
9:16 PM32.0 °F30.2 °F93 %29.64 in10.0 miNW (320°)20.7 mph27.6 mphOvercast
9:36 PM32.0 °F30.0 °F92 %29.65 in10.0 miNNW (330°)17.3 mph24.2 mphOvercast
9:56 PM31.8 °F29.7 °F92 %29.66 in10.0 miNW (320°)15.0 mph24.2 mphSnowLight Snow
10:16 PM31.1 °F29.1 °F92 %29.67 in7.0 miNW (320°)16.1 mph19.6 mphSnowLight Snow
10:35 PM30.7 °F28.9 °F93 %29.68 in10.0 miNW (320°)16.1 mph20.7 mphOvercast
10:56 PM30.6 °F28.4 °F92 %29.68 in10.0 miNW (320°)16.1 mph20.7 mphSnowLight Snow
11:16 PM30.2 °F28.4 °F93 %29.70 in4.0 miNW (310°)17.3 mph23.0 mphSnowLight Snow
11:36 PM29.3 °F27.9 °F94 %29.71 in10.0 miNW (310°)15.0 mphOvercast
11:55 PM29.3 °F27.5 °F93 %29.72 in10.0 miNW (320°)13.8 mph24.2 mphOvercast
Hourly data recorded from KCNB, located miles away from Clear Lake, South Dakota







STORIES FROM OUR PARTNERS